| time (UTC) | temp F | wind direction | speed MPH | gust MPH | rain 1hr in | rain 24hr in | rain mn in | humidity % | barometer mb |
| 20260505204235 | 79 | 87 | 12.0 | 15.0 | 0.00 | 0.00 | 0.00 | 61 | 1015.0 |
| 20260505203716 | 79 | 68 | 8.0 | 12.0 | 0.00 | 0.00 | 0.00 | 58 | 1015.0 |
| 20260505203219 | 79 | 59 | 9.0 | 13.0 | 0.00 | 0.00 | 0.00 | 57 | 1015.0 |
| 20260505202722 | 79 | 73 | 10.0 | 13.0 | 0.00 | 0.00 | 0.00 | 58 | 1015.0 |
| 20260505202226 | 79 | 75 | 8.0 | 15.0 | 0.00 | 0.00 | 0.00 | 62 | 1015.0 |
| 20260505201747 | 79 | 94 | 11.0 | 15.0 | 0.00 | 0.00 | 0.00 | 57 | 1015.1 |
| 20260505201210 | 79 | 75 | 9.0 | 15.0 | 0.00 | 0.00 | 0.00 | 58 | 1015.2 |
| 20260505200727 | 79 | 68 | 10.0 | 15.0 | 0.00 | 0.00 | 0.00 | 60 | 1015.2 |
| 20260505200211 | 79 | 82 | 8.0 | 14.0 | 0.00 | 0.00 | 0.00 | 55 | 1015.1 |
| 20260505195713 | 79 | 80 | 6.0 | 15.0 | 0.00 | 0.00 | 0.00 | 57 | 1015.2 |
| 20260505195211 | 79 | 81 | 11.0 | 15.0 | 0.00 | 0.00 | 0.00 | 57 | 1015.3 |
| 20260505194715 | 79 | 70 | 9.0 | 13.0 | 0.00 | 0.00 | 0.00 | 56 | 1015.4 |
| 20260505194217 | 79 | 59 | 6.0 | 8.0 | 0.00 | 0.00 | 0.00 | 58 | 1015.4 |
| 20260505193724 | 79 | 67 | 4.0 | 9.0 | 0.00 | 0.00 | 0.00 | 55 | 1015.6 |
| 20260505193226 | 79 | 90 | 6.0 | 12.0 | 0.00 | 0.00 | 0.00 | 55 | 1015.7 |
| 20260505192728 | 79 | 79 | 9.0 | 11.0 | 0.00 | 0.00 | 0.00 | 57 | 1015.7 |
| 20260505192230 | 79 | 96 | 6.0 | 14.0 | 0.00 | 0.00 | 0.00 | 55 | 1015.8 |
| 20260505191713 | 79 | 103 | 10.0 | 14.0 | 0.00 | 0.00 | 0.00 | 56 | 1015.8 |
| 20260505191238 | 79 | 82 | 10.0 | 14.0 | 0.00 | 0.00 | 0.00 | 64 | 1015.8 |
| 20260505190720 | 79 | 80 | 8.0 | 12.0 | 0.00 | 0.00 | 0.00 | 56 | 1015.8 |
| 20260505190222 | 79 | 81 | 8.0 | 11.0 | 0.00 | 0.00 | 0.00 | 64 | 1015.8 |
| 20260505185726 | 78 | 78 | 9.0 | 11.0 | 0.00 | 0.00 | 0.00 | 58 | 1016.0 |
| 20260505185210 | 78 | 37 | 7.0 | 9.0 | 0.00 | 0.00 | 0.00 | 57 | 1016.0 |
| 20260505184711 | 78 | 56 | 5.0 | 11.0 | 0.00 | 0.00 | 0.00 | 58 | 1016.1 |
| 20260505184214 | 78 | 70 | 7.0 | 11.0 | 0.00 | 0.00 | 0.00 | 58 | 1016.2 |
| 20260505183718 | 78 | 53 | 6.0 | 8.0 | 0.00 | 0.00 | 0.00 | 62 | 1016.2 |
| 20260505183225 | 78 | 74 | 6.0 | 10.0 | 0.00 | 0.00 | 0.00 | 58 | 1016.2 |
| 20260505182724 | 78 | 53 | 8.0 | 11.0 | 0.00 | 0.00 | 0.00 | 60 | 1016.2 |
| 20260505182228 | 78 | 91 | 9.0 | 12.0 | 0.00 | 0.00 | 0.00 | 63 | 1016.1 |
| 20260505181710 | 78 | 77 | 8.0 | 13.0 | 0.00 | 0.00 | 0.00 | 62 | 1016.1 |
| 20260505181211 | 78 | 76 | 10.0 | 13.0 | 0.00 | 0.00 | 0.00 | 61 | 1016.2 |
| 20260505180717 | 78 | 77 | 9.0 | 12.0 | 0.00 | 0.00 | 0.00 | 58 | 1016.3 |
| 20260505180222 | 78 | 86 | 6.0 | 9.0 | 0.00 | 0.00 | 0.00 | 59 | 1016.3 |
| 20260505175726 | 78 | 69 | 7.0 | 8.0 | 0.00 | 0.00 | 0.00 | 58 | 1016.4 |
| 20260505175210 | 78 | 95 | 5.0 | 10.0 | 0.00 | 0.00 | 0.00 | 59 | 1016.5 |
| 20260505174713 | 78 | 91 | 7.0 | 10.0 | 0.00 | 0.00 | 0.00 | 58 | 1016.6 |
| 20260505174217 | 78 | 89 | 7.0 | 9.0 | 0.00 | 0.00 | 0.00 | 59 | 1016.6 |
| 20260505173721 | 78 | 81 | 2.0 | 6.0 | 0.00 | 0.00 | 0.00 | 57 | 1016.7 |
| 20260505173225 | 78 | 96 | 4.0 | 9.0 | 0.00 | 0.00 | 0.00 | 57 | 1016.6 |
| 20260505172712 | 78 | 81 | 6.0 | 10.0 | 0.00 | 0.00 | 0.00 | 57 | 1016.7 |
| 20260505172217 | 78 | 87 | 7.0 | 10.0 | 0.00 | 0.00 | 0.00 | 60 | 1016.7 |
| 20260505171719 | 78 | 85 | 5.0 | 7.0 | 0.00 | 0.00 | 0.00 | 62 | 1016.7 |
| 20260505171223 | 78 | 54 | 2.0 | 4.0 | 0.00 | 0.00 | 0.00 | 59 | 1016.7 |
| 20260505170727 | 78 | 51 | 3.0 | 5.0 | 0.00 | 0.00 | 0.00 | 56 | 1016.9 |
| 20260505170211 | 78 | 62 | 3.0 | 6.0 | 0.00 | 0.00 | 0.00 | 59 | 1016.9 |
| 20260505165713 | 78 | 62 | 4.0 | 7.0 | 0.00 | 0.00 | 0.00 | 59 | 1016.9 |
| 20260505165237 | 78 | 55 | 5.0 | 10.0 | 0.00 | 0.00 | 0.00 | 58 | 1016.9 |
| 20260505164740 | 78 | 42 | 4.0 | 9.0 | 0.00 | 0.00 | 0.00 | 62 | 1016.9 |
| 20260505164224 | 78 | 56 | 6.0 | 8.0 | 0.00 | 0.00 | 0.00 | 60 | 1016.9 |
| 20260505163726 | 78 | 81 | 6.0 | 8.0 | 0.00 | 0.00 | 0.00 | 59 | 1017.0 |
| 20260505163210 | 77 | 63 | 5.0 | 6.0 | 0.00 | 0.00 | 0.00 | 61 | 1017.1 |
| 20260505162733 | 77 | 44 | 4.0 | 6.0 | 0.00 | 0.00 | 0.00 | 60 | 1017.1 |
| 20260505162220 | 77 | 72 | 4.0 | 6.0 | 0.00 | 0.00 | 0.00 | 62 | 1017.1 |
| 20260505161723 | 77 | 64 | 3.0 | 5.0 | 0.00 | 0.00 | 0.00 | 63 | 1017.0 |
| 20260505161225 | 77 | 75 | 4.0 | 6.0 | 0.00 | 0.00 | 0.00 | 61 | 1017.0 |
| 20260505160726 | 77 | 99 | 4.0 | 6.0 | 0.00 | 0.00 | 0.00 | 62 | 1016.9 |
| 20260505160215 | 77 | 68 | 3.0 | 9.0 | 0.00 | 0.00 | 0.00 | 64 | 1016.9 |
| 20260505153222 | 76 | 50 | 4.0 | 6.0 | 0.00 | 0.00 | 0.00 | 64 | 1017.1 |
| 20260505152725 | 76 | 37 | 2.0 | 4.0 | 0.00 | 0.00 | 0.00 | 64 | 1017.2 |
| 20260505152210 | 76 | 63 | 3.0 | 7.0 | 0.00 | 0.00 | 0.00 | 63 | 1017.1 |
| 20260505151734 | 76 | 51 | 2.0 | 7.0 | 0.00 | 0.00 | 0.00 | 65 | 1017.1 |
| 20260505151218 | 76 | 81 | 4.0 | 5.0 | 0.00 | 0.00 | 0.00 | 63 | 1017.1 |
| 20260505150741 | 75 | 54 | 2.0 | 5.0 | 0.00 | 0.00 | 0.00 | 63 | 1017.1 |
| 20260505150225 | 75 | 70 | 3.0 | 6.0 | 0.00 | 0.00 | 0.00 | 64 | 1017.1 |
| 20260505140211 | 74 | 75 | 4.0 | 10.0 | 0.00 | 0.00 | 0.00 | 71 | 1016.8 |
| 20260505130210 | 70 | 70 | 3.0 | 4.0 | 0.00 | 0.00 | 0.00 | 80 | 1016.8 |
| 20260505124722 | 70 | 75 | 2.0 | 4.0 | 0.00 | 0.00 | 0.00 | 82 | 1016.7 |
| 20260505124226 | 69 | 69 | 2.0 | 3.0 | 0.00 | 0.00 | 0.00 | 83 | 1016.6 |
| 20260505123709 | 69 | 64 | 1.0 | 2.0 | 0.00 | 0.00 | 0.00 | 84 | 1016.7 |
| 20260505123234 | 69 | 165 | 0.0 | 0.0 | 0.00 | 0.00 | 0.00 | 89 | 1016.6 |
| 20260505122728 | 69 | 166 | 0.0 | 0.0 | 0.00 | 0.00 | 0.00 | 90 | 1016.5 |
| 20260505122212 | 68 | 190 | 0.0 | 0.0 | 0.00 | 0.00 | 0.00 | 90 | 1016.7 |
| 20260505121715 | 67 | 190 | 0.0 | 0.0 | 0.00 | 0.00 | 0.00 | 91 | 1016.7 |
| 20260505121241 | 66 | 191 | 0.0 | 0.0 | 0.00 | 0.00 | 0.00 | 91 | 1016.6 |
| 20260505120725 | 66 | 190 | 0.0 | 0.0 | 0.00 | 0.00 | 0.00 | 92 | 1016.4 |
| 20260505120210 | 64 | 190 | 0.0 | 0.0 | 0.00 | 0.00 | 0.00 | 92 | 1016.3 |
| 20260505115718 | 64 | 190 | 0.0 | 0.0 | 0.00 | 0.00 | 0.00 | 93 | 1016.3 |
| 20260505115222 | 63 | 190 | 0.0 | 0.0 | 0.00 | 0.00 | 0.00 | 93 | 1016.2 |
| 20260505114724 | 62 | 191 | 0.0 | 0.0 | 0.00 | 0.00 | 0.00 | 93 | 1016.2 |
| 20260505114226 | 62 | 190 | 0.0 | 0.0 | 0.00 | 0.00 | 0.00 | 93 | 1016.2 |
| 20260505113710 | 61 | 189 | 0.0 | 0.0 | 0.00 | 0.00 | 0.00 | 94 | 1016.2 |
| 20260505113214 | 60 | 190 | 0.0 | 0.0 | 0.00 | 0.00 | 0.00 | 93 | 1016.3 |
| 20260505112718 | 60 | 190 | 0.0 | 0.0 | 0.00 | 0.00 | 0.00 | 93 | 1016.2 |
| 20260505112222 | 60 | 190 | 0.0 | 0.0 | 0.00 | 0.00 | 0.00 | 93 | 1016.2 |
| 20260505111717 | 60 | 189 | 0.0 | 0.0 | 0.00 | 0.00 | 0.00 | 94 | 1016.1 |
| 20260505111242 | 60 | 189 | 0.0 | 0.0 | 0.00 | 0.00 | 0.00 | 94 | 1016.0 |
| 20260505110724 | 60 | 190 | 0.0 | 0.0 | 0.00 | 0.00 | 0.00 | 95 | 1016.1 |
| 20260505110229 | 60 | 189 | 0.0 | 0.0 | 0.00 | 0.00 | 0.00 | 95 | 1016.0 |
| 20260505101719 | 58 | 182 | 0.0 | 0.0 | 0.00 | 0.00 | 0.00 | 94 | 1015.5 |
| 20260505101224 | 58 | 182 | 0.0 | 0.0 | 0.00 | 0.00 | 0.00 | 94 | 1015.5 |
| 20260505100712 | 58 | 188 | 0.0 | 0.0 | 0.00 | 0.00 | 0.00 | 94 | 1015.7 |
| 20260505100215 | 59 | 190 | 0.0 | 0.0 | 0.00 | 0.00 | 0.00 | 94 | 1015.6 |
| 20260505041215 | 64 | 194 | 0.0 | 1.0 | 0.00 | 0.00 | 0.00 | 82 | 1016.5 |
| 20260505040716 | 64 | 185 | 0.0 | 1.0 | 0.00 | 0.00 | 0.00 | 82 | 1016.6 |
| 20260505040248 | 64 | 200 | 0.0 | 1.0 | 0.00 | 0.00 | 0.00 | 82 | 1016.5 |
| 20260505035711 | 64 | 198 | 0.0 | 1.0 | 0.00 | 0.00 | 0.00 | 82 | 1016.5 |
| 20260505035235 | 64 | 191 | 0.0 | 2.0 | 0.00 | 0.00 | 0.00 | 81 | 1016.5 |
| 20260505034719 | 64 | 166 | 0.0 | 2.0 | 0.00 | 0.00 | 0.00 | 81 | 1016.5 |
| 20260505034224 | 64 | 140 | 0.0 | 1.0 | 0.00 | 0.00 | 0.00 | 80 | 1016.5 |
| 20260505033712 | 65 | 210 | 0.0 | 1.0 | 0.00 | 0.00 | 0.00 | 80 | 1016.5 |
| 20260505033216 | 65 | 183 | 0.0 | 1.0 | 0.00 | 0.00 | 0.00 | 80 | 1016.7 |
| 20260505032719 | 65 | 156 | 0.0 | 1.0 | 0.00 | 0.00 | 0.00 | 79 | 1016.7 |
| 20260505032223 | 65 | 210 | 0.0 | 1.0 | 0.00 | 0.00 | 0.00 | 79 | 1016.8 |
| 20260505031728 | 65 | 188 | 0.0 | 1.0 | 0.00 | 0.00 | 0.00 | 78 | 1016.7 |
| 20260505031231 | 66 | 203 | 0.0 | 1.0 | 0.00 | 0.00 | 0.00 | 78 | 1016.8 |
| 20260505030733 | 66 | 194 | 0.0 | 3.0 | 0.00 | 0.00 | 0.00 | 77 | 1016.8 |
| 20260505030216 | 66 | 142 | 0.0 | 3.0 | 0.00 | 0.00 | 0.00 | 77 | 1016.8 |
| 20260505025719 | 66 | 143 | 0.0 | 3.0 | 0.00 | 0.00 | 0.00 | 77 | 1016.8 |
| 20260505025222 | 67 | 201 | 0.0 | 2.0 | 0.00 | 0.00 | 0.00 | 77 | 1016.8 |
| 20260505024745 | 67 | 125 | 0.0 | 4.0 | 0.00 | 0.00 | 0.00 | 77 | 1016.9 |
| 20260505024228 | 67 | 151 | 2.0 | 4.0 | 0.00 | 0.00 | 0.00 | 77 | 1016.8 |
| 20260505023712 | 67 | 131 | 1.0 | 3.0 | 0.00 | 0.00 | 0.00 | 77 | 1016.8 |
| 20260505023220 | 67 | 95 | 0.0 | 4.0 | 0.00 | 0.00 | 0.00 | 76 | 1016.9 |
| 20260505022743 | 67 | 155 | 1.0 | 4.0 | 0.00 | 0.00 | 0.00 | 76 | 1016.9 |
| 20260505022226 | 67 | 70 | 1.0 | 4.0 | 0.00 | 0.00 | 0.00 | 76 | 1016.9 |
| 20260505021711 | 67 | 199 | 1.0 | 6.0 | 0.00 | 0.00 | 0.00 | 76 | 1016.8 |
| 20260505021214 | 68 | 127 | 1.0 | 6.0 | 0.00 | 0.00 | 0.00 | 75 | 1016.8 |
| 20260505020727 | 68 | 124 | 1.0 | 3.0 | 0.00 | 0.00 | 0.00 | 75 | 1016.8 |
| 20260505020211 | 68 | 92 | 1.0 | 4.0 | 0.00 | 0.00 | 0.00 | 74 | 1016.8 |
| 20260505015713 | 68 | 146 | 1.0 | 4.0 | 0.00 | 0.00 | 0.00 | 74 | 1016.8 |
| 20260505015217 | 68 | 118 | 1.0 | 4.0 | 0.00 | 0.00 | 0.00 | 74 | 1016.8 |
| 20260505014721 | 69 | 79 | 1.0 | 5.0 | 0.00 | 0.00 | 0.00 | 74 | 1016.8 |
| 20260505014225 | 69 | 77 | 3.0 | 6.0 | 0.00 | 0.00 | 0.00 | 74 | 1016.7 |
| 20260505013710 | 69 | 166 | 2.0 | 6.0 | 0.00 | 0.00 | 0.00 | 74 | 1016.6 |
| 20260505013219 | 69 | 94 | 4.0 | 5.0 | 0.00 | 0.00 | 0.00 | 74 | 1016.6 |
| 20260505012723 | 69 | 112 | 2.0 | 6.0 | 0.00 | 0.00 | 0.00 | 74 | 1016.6 |
| 20260505012226 | 70 | 127 | 3.0 | 7.0 | 0.00 | 0.00 | 0.00 | 74 | 1016.6 |
| 20260505011710 | 70 | 89 | 5.0 | 7.0 | 0.00 | 0.00 | 0.00 | 73 | 1016.4 |
| 20260505011216 | 70 | 137 | 2.0 | 8.0 | 0.00 | 0.00 | 0.00 | 73 | 1016.4 |
| 20260505010719 | 70 | 108 | 3.0 | 8.0 | 0.00 | 0.00 | 0.00 | 73 | 1016.4 |
| 20260505010221 | 70 | 97 | 5.0 | 8.0 | 0.00 | 0.00 | 0.00 | 72 | 1016.3 |
| 20260505005725 | 70 | 123 | 2.0 | 8.0 | 0.00 | 0.00 | 0.00 | 73 | 1016.3 |
| 20260505005210 | 70 | 105 | 4.0 | 6.0 | 0.00 | 0.00 | 0.00 | 72 | 1016.3 |
| 20260505004714 | 71 | 144 | 2.0 | 8.0 | 0.00 | 0.00 | 0.00 | 72 | 1016.3 |
| 20260505004219 | 71 | 66 | 3.0 | 9.0 | 0.00 | 0.00 | 0.00 | 72 | 1016.2 |
| 20260505003727 | 71 | 100 | 6.0 | 9.0 | 0.00 | 0.00 | 0.00 | 71 | 1016.2 |
| 20260505003213 | 71 | 82 | 6.0 | 9.0 | 0.00 | 0.00 | 0.00 | 73 | 1016.2 |
| 20260505002715 | 71 | 98 | 4.0 | 5.0 | 0.00 | 0.00 | 0.00 | 72 | 1016.2 |
| 20260505002220 | 71 | 156 | 2.0 | 6.0 | 0.00 | 0.00 | 0.00 | 69 | 1016.2 |
| 20260505001725 | 71 | 83 | 2.0 | 6.0 | 0.00 | 0.00 | 0.00 | 68 | 1016.1 |
| 20260505001228 | 71 | 130 | 3.0 | 8.0 | 0.00 | 0.00 | 0.00 | 67 | 1016.0 |
| 20260505000723 | 72 | 92 | 2.0 | 8.0 | 0.00 | 0.00 | 0.00 | 66 | 1015.9 |
| 20260505000228 | 72 | 92 | 3.0 | 7.0 | 0.00 | 0.00 | 0.00 | 66 | 1015.8 |
| 20260504235731 | 72 | 84 | 3.0 | 9.0 | 0.00 | 0.00 | 0.00 | 65 | 1015.7 |
| 20260504235214 | 73 | 82 | 4.0 | 9.0 | 0.00 | 0.00 | 0.00 | 66 | 1015.6 |
| 20260504234710 | 73 | 121 | 5.0 | 9.0 | 0.00 | 0.00 | 0.00 | 66 | 1015.7 |
| 20260504234215 | 73 | 80 | 5.0 | 14.0 | 0.00 | 0.00 | 0.00 | 64 | 1015.6 |
| 20260504233719 | 73 | 129 | 8.0 | 16.0 | 0.00 | 0.00 | 0.00 | 65 | 1015.5 |
| 20260504233227 | 74 | 92 | 9.0 | 16.0 | 0.00 | 0.00 | 0.00 | 66 | 1015.4 |
| 20260504232710 | 74 | 101 | 6.0 | 16.0 | 0.00 | 0.00 | 0.00 | 65 | 1015.3 |
| 20260504232214 | 74 | 122 | 6.0 | 16.0 | 0.00 | 0.00 | 0.00 | 65 | 1015.3 |
| 20260504231718 | 74 | 83 | 11.0 | 14.0 | 0.00 | 0.00 | 0.00 | 65 | 1015.2 |
| 20260504231218 | 74 | 96 | 10.0 | 17.0 | 0.00 | 0.00 | 0.00 | 61 | 1015.3 |
| 20260504230720 | 74 | 82 | 11.0 | 17.0 | 0.00 | 0.00 | 0.00 | 63 | 1015.3 |
| 20260504230224 | 74 | 72 | 11.0 | 18.0 | 0.00 | 0.00 | 0.00 | 66 | 1015.3 |
| 20260504225728 | 74 | 105 | 12.0 | 18.0 | 0.00 | 0.00 | 0.00 | 63 | 1015.2 |
| 20260504225212 | 74 | 110 | 13.0 | 18.0 | 0.00 | 0.00 | 0.00 | 63 | 1015.3 |
| 20260504224715 | 75 | 80 | 11.0 | 16.0 | 0.00 | 0.00 | 0.00 | 65 | 1015.3 |
| 20260504224229 | 75 | 82 | 9.0 | 17.0 | 0.00 | 0.00 | 0.00 | 62 | 1015.3 |
| 20260504223716 | 75 | 86 | 13.0 | 17.0 | 0.00 | 0.00 | 0.00 | 62 | 1015.3 |
| 20260504223221 | 75 | 89 | 12.0 | 17.0 | 0.00 | 0.00 | 0.00 | 64 | 1015.4 |
| 20260504222723 | 75 | 112 | 10.0 | 18.0 | 0.00 | 0.00 | 0.00 | 64 | 1015.5 |
| 20260504222228 | 75 | 82 | 15.0 | 18.0 | 0.00 | 0.00 | 0.00 | 64 | 1015.5 |
| 20260504221711 | 75 | 78 | 10.0 | 16.0 | 0.00 | 0.00 | 0.00 | 60 | 1015.4 |
| 20260504221215 | 75 | 94 | 11.0 | 16.0 | 0.00 | 0.00 | 0.00 | 62 | 1015.5 |
| 20260504220713 | 75 | 89 | 12.0 | 16.0 | 0.00 | 0.00 | 0.00 | 64 | 1015.5 |
| 20260504220216 | 75 | 87 | 11.0 | 19.0 | 0.00 | 0.00 | 0.00 | 63 | 1015.4 |
| 20260504215721 | 75 | 74 | 16.0 | 21.0 | 0.00 | 0.00 | 0.00 | 65 | 1015.4 |
| 20260504215221 | 75 | 85 | 15.0 | 21.0 | 0.00 | 0.00 | 0.00 | 64 | 1015.4 |
| 20260504214726 | 75 | 80 | 14.0 | 19.0 | 0.00 | 0.00 | 0.00 | 65 | 1015.4 |
| 20260504214228 | 75 | 82 | 15.0 | 19.0 | 0.00 | 0.00 | 0.00 | 66 | 1015.4 |
| 20260504213723 | 75 | 85 | 16.0 | 19.0 | 0.00 | 0.00 | 0.00 | 66 | 1015.4 |
| 20260504213232 | 75 | 89 | 7.0 | 17.0 | 0.00 | 0.00 | 0.00 | 60 | 1015.4 |
| 20260504212733 | 75 | 79 | 12.0 | 17.0 | 0.00 | 0.00 | 0.00 | 64 | 1015.4 |
| 20260504212227 | 75 | 80 | 12.0 | 16.0 | 0.00 | 0.00 | 0.00 | 60 | 1015.3 |
| 20260504211710 | 75 | 54 | 11.0 | 16.0 | 0.00 | 0.00 | 0.00 | 64 | 1015.4 |
| 20260504211234 | 75 | 63 | 12.0 | 15.0 | 0.00 | 0.00 | 0.00 | 62 | 1015.4 |
| 20260504210717 | 75 | 71 | 12.0 | 16.0 | 0.00 | 0.00 | 0.00 | 64 | 1015.4 |
| 20260504210216 | 75 | 82 | 13.0 | 16.0 | 0.00 | 0.00 | 0.00 | 62 | 1015.4 |
| 20260504205720 | 75 | 103 | 11.0 | 15.0 | 0.00 | 0.00 | 0.00 | 64 | 1015.4 |
| 20260504205243 | 75 | 115 | 11.0 | 16.0 | 0.00 | 0.00 | 0.00 | 62 | 1015.4 |
| 20260504204725 | 75 | 94 | 11.0 | 16.0 | 0.00 | 0.00 | 0.00 | 63 | 1015.4 |